QPF
0.00 0.00 0.00 0.00 0.00 0.00 0.00 0.00 0.01 0.00 0.00 0.00 0.00 0.00 0.00 0.01 0.00 0.00 0.00 0.00 0.00 0.00 0.00 0.00 0.00 0.00 0.00 0.01 0.00 0.00 0.00 0.00 0.00 0.00 0.00 0.00 0.00 0.00 0.00 0.00 0.00 0.00 0.00
0.00 0.00 0.00 0.00 0.00 0.00 0.01 0.02 0.02 0.01 0.00 0.00 0.00 0.01 0.01 0.01 0.00 0.00 0.00 0.00 0.00 0.00 0.00 0.00 0.00 0.00 0.01 0.01 0.00 0.00 0.00 0.00 0.00 0.00 0.00 0.00 0.00 0.00 0.00 0.00 0.00 0.00 0.00
0.00 0.00 0.00 0.00 0.00 0.00 0.01 0.02 0.03 0.02 0.01 0.00 0.01 0.03 0.03 0.02 0.01 0.00 0.00 0.00 0.00 0.00 0.00 0.00 0.00 0.00 0.01 0.01 0.00 0.00 0.00 0.00 0.00 0.00 0.00 0.00 0.00 0.00 0.00 0.00 0.00 0.00 0.00
0.00 0.00 0.00 0.00 0.00 0.00 0.00 0.01 0.04 0.04 0.02 0.01 0.04 0.04 0.03 0.02 0.01 0.01 0.01 0.01 0.00 0.00 0.00 0.00 0.00 0.00 0.00 0.00 0.00 0.00 0.00 0.00 0.00 0.00 0.00 0.01 0.00 0.00 0.00 0.00 0.00 0.00 0.00
0.00 0.00 0.00 0.00 0.00 0.00 0.00 0.01 0.03 0.05 0.03 0.03 0.05 0.05 0.03 0.03 0.03 0.02 0.02 0.02 0.01 0.00 0.00 0.00 0.00 0.01 0.00 0.00 0.00 0.00 0.00 0.00 0.00 0.00 0.00 0.01 0.00 0.00 0.00 0.00 0.00 0.00 0.00
0.00 0.00 0.00 0.00 0.00 0.00 0.00 0.00 0.02 0.04 0.04 0.04 0.05 0.04 0.05 0.06 0.05 0.03 0.04 0.04 0.01 0.00 0.00 0.01 0.01 0.01 0.01 0.00 0.00 0.00 0.00 0.00 0.00 0.00 0.00 0.00 0.02 0.02 0.00 0.00 0.00 0.00 0.00
0.00 0.00 0.00 0.00 0.00 0.00 0.00 0.00 0.01 0.02 0.02 0.03 0.05 0.07 0.05 0.04 0.04 0.03 0.03 0.03 0.01 0.00 0.00 0.00 0.00 0.01 0.01 0.00 0.00 0.00 0.00 0.00 0.00 0.00 0.00 0.00 0.01 0.01 0.00 0.00 0.00 0.00 0.00
0.00 0.00 0.00 0.00 0.00 0.00 0.00 0.00 0.00 0.01 0.01 0.02 0.03 0.05 0.03 0.01 0.01 0.01 0.01 0.01 0.00 0.00 0.00 0.00 0.00 0.00 0.00 0.00 0.00 0.00 0.00 0.00 0.01 0.02 0.01 0.00 0.01 0.01 0.01 0.00 0.00 0.00 0.00
0.00 0.00 0.00 0.00 0.00 0.00 0.00 0.00 0.00 0.00 0.01 0.01 0.01 0.01 0.01 0.00 0.00 0.00 0.00 0.00 0.00 0.00 0.00 0.00 0.00 0.00 0.00 0.00 0.00 0.00 0.00 0.00 0.01 0.03 0.01 0.03 0.06 0.04 0.03 0.02 0.02 0.02 0.01
0.00 0.00 0.00 0.00 0.00 0.00 0.00 0.00 0.00 0.00 0.00 0.00 0.00 0.00 0.00 0.00 0.00 0.00 0.00 0.00 0.00 0.00 0.00 0.00 0.00 0.00 0.00 0.00 0.00 0.00 0.00 0.00 0.00 0.00 0.01 0.03 0.04 0.04 0.05 0.06 0.07 0.08 0.07
0.00 0.00 0.00 0.00 0.00 0.00 0.00 0.00 0.00 0.00 0.00 0.00 0.00 0.00 0.00 0.00 0.01 0.02 0.01 0.02 0.01 0.00 0.00 0.00 0.00 0.00 0.00 0.00 0.00 0.00 0.00 0.00 0.00 0.00 0.01 0.03 0.03 0.04 0.06 0.08 0.11 0.11 0.11
0.00 0.00 0.00 0.00 0.00 0.00 0.00 0.00 0.00 0.00 0.00 0.00 0.01 0.01 0.01 0.01 0.01 0.01 0.01 0.02 0.01 0.00 0.00 0.01 0.00 0.00 0.01 0.02 0.16 0.14 0.00 0.00 0.00 0.00 0.00 0.01 0.02 0.04 0.05 0.05 0.06 0.07 0.08
0.00 0.00 0.00 0.00 0.00 0.00 0.00 0.00 0.00 0.00 0.00 0.00 0.00 0.01 0.01 0.01 0.00 0.00 0.02 0.04 0.03 0.02 0.11 0.16 0.07 0.03 0.07 0.07 0.13 0.13 0.00 0.00 0.00 0.00 0.01 0.03 0.03 0.03 0.02 0.02 0.02 0.02 0.04
0.00 0.00 0.00 0.00 0.00 0.00 0.00 0.00 0.00 0.00 0.00 0.00 0.00 0.00 0.00 0.00 0.01 0.03 0.07 0.11 0.13 0.11 0.16 0.15 0.16 0.07 0.04 0.02 0.02 0.02 0.00 0.00 0.00 0.01 0.05 0.02 0.01 0.00 0.01 0.02 0.02 0.02 0.03
0.00 0.00 0.00 0.00 0.00 0.00 0.00 0.00 0.00 0.00 0.00 0.00 0.00 0.00 0.00 0.00 0.02 0.05 0.07 0.08 0.06 0.08 0.10 0.10 0.08 0.07 0.05 0.04 0.02 0.01 0.00 0.00 0.00 0.02 0.08 0.03 0.00 0.00 0.00 0.01 0.01 0.01 0.01
0.00 0.00 0.00 0.00 0.00 0.00 0.00 0.00 0.00 0.00 0.00 0.00 0.00 0.00 0.00 0.01 0.03 0.05 0.07 0.07 0.04 0.04 0.10 0.13 0.10 0.14 0.10 0.07 0.03 0.01 0.00 0.00 0.00 0.01 0.04 0.05 0.03 0.00 0.00 0.00 0.00 0.00 0.00
0.00 0.00 0.00 0.00 0.00 0.00 0.00 0.00 0.00 0.00 0.00 0.00 0.00 0.00 0.00 0.01 0.04 0.04 0.09 0.09 0.07 0.05 0.10 0.10 0.11 0.13 0.10 0.07 0.05 0.01 0.01 0.01 0.01 0.00 0.00 0.02 0.02 0.02 0.01 0.00 0.00 0.00 0.00
0.00 0.00 0.00 0.00 0.00 0.00 0.00 0.02 0.03 0.02 0.01 0.00 0.00 0.00 0.01 0.02 0.05 0.08 0.09 0.10 0.12 0.11 0.14 0.17 0.17 0.15 0.16 0.10 0.05 0.01 0.01 0.02 0.00 0.00 0.00 0.00 0.01 0.01 0.02 0.01 0.01 0.00 0.00
0.00 0.00 0.00 0.00 0.00 0.00 0.02 0.05 0.09 0.12 0.08 0.04 0.02 0.03 0.05 0.07 0.08 0.15 0.11 0.11 0.11 0.16 0.16 0.11 0.20 0.19 0.20 0.15 0.03 0.02 0.01 0.01 0.00 0.00 0.00 0.00 0.00 0.00 0.00 0.01 0.01 0.01 0.01
0.00 0.00 0.00 0.00 0.00 0.02 0.06 0.10 0.14 0.18 0.15 0.11 0.07 0.08 0.10 0.13 0.14 0.17 0.13 0.14 0.11 0.17 0.18 0.15 0.18 0.18 0.17 0.14 0.03 0.03 0.02 0.00 0.00 0.00 0.00 0.00 0.00 0.00 0.00 0.00 0.02 0.01 0.01
0.01 0.02 0.04 0.04 0.03 0.05 0.08 0.10 0.15 0.21 0.25 0.26 0.21 0.17 0.15 0.14 0.14 0.16 0.10 0.17 0.15 0.15 0.17 0.16 0.23 0.26 0.23 0.20 0.13 0.08 0.02 0.00 0.00 0.00 0.00 0.00 0.00 0.00 0.00 0.00 0.01 0.01 0.01
0.05 0.09 0.10 0.10 0.10 0.10 0.13 0.14 0.17 0.20 0.21 0.26 0.27 0.23 0.15 0.10 0.08 0.09 0.12 0.13 0.16 0.17 0.18 0.20 0.23 0.19 0.17 0.21 0.22 0.20 0.13 0.11 0.07 0.00 0.00 0.00 0.00 0.00 0.00 0.00 0.00 0.00 0.01
0.06 0.08 0.08 0.10 0.12 0.14 0.17 0.18 0.16 0.16 0.12 0.14 0.16 0.15 0.10 0.07 0.05 0.05 0.07 0.10 0.13 0.14 0.15 0.20 0.21 0.20 0.19 0.22 0.28 0.28 0.25 0.22 0.12 0.02 0.00 0.00 0.00 0.00 0.00 0.00 0.00 0.00 0.00
0.03 0.04 0.05 0.06 0.08 0.09 0.12 0.13 0.14 0.14 0.11 0.14 0.13 0.07 0.04 0.03 0.03 0.04 0.06 0.09 0.12 0.13 0.16 0.15 0.15 0.25 0.26 0.24 0.31 0.33 0.31 0.24 0.19 0.11 0.06 0.01 0.00 0.00 0.00 0.00 0.00 0.00 0.00
0.02 0.02 0.03 0.03 0.03 0.03 0.03 0.04 0.05 0.07 0.07 0.07 0.06 0.04 0.04 0.05 0.05 0.05 0.07 0.11 0.15 0.18 0.19 0.18 0.18 0.22 0.24 0.25 0.27 0.32 0.35 0.34 0.25 0.19 0.14 0.08 0.02 0.00 0.00 0.00 0.00 0.00 0.00
0.01 0.01 0.01 0.01 0.01 0.01 0.01 0.01 0.01 0.01 0.02 0.03 0.05 0.07 0.08 0.10 0.11 0.11 0.13 0.17 0.22 0.24 0.26 0.22 0.21 0.23 0.24 0.27 0.28 0.31 0.33 0.30 0.31 0.27 0.19 0.12 0.05 0.01 0.00 0.00 0.00 0.00 0.00
MSLP
1009.92 1009.99 1010.24 1010.69 1011.27 1011.91 1012.50 1012.97 1013.29 1013.47 1013.56 1013.61 1013.70 1013.87 1014.11 1014.40 1014.71 1014.98 1015.18 1015.29 1015.34 1015.36 1015.37 1015.42 1015.51 1015.66 1015.82 1015.99 1016.14 1016.25 1016.32 1016.38 1016.43 1016.50 1016.60 1016.74 1016.90 1017.06 1017.22 1017.36 1017.47 1017.56 1017.63
1009.83 1010.07 1010.47 1011.03 1011.67 1012.31 1012.86 1013.25 1013.49 1013.59 1013.62 1013.66 1013.78 1013.99 1014.30 1014.66 1015.01 1015.31 1015.50 1015.59 1015.61 1015.58 1015.56 1015.59 1015.69 1015.84 1016.03 1016.21 1016.37 1016.47 1016.53 1016.56 1016.58 1016.63 1016.71 1016.84 1017.00 1017.18 1017.36 1017.51 1017.63 1017.73 1017.79
1009.73 1010.12 1010.66 1011.33 1012.03 1012.67 1013.18 1013.52 1013.68 1013.72 1013.72 1013.76 1013.89 1014.14 1014.49 1014.88 1015.26 1015.55 1015.73 1015.79 1015.77 1015.72 1015.69 1015.72 1015.82 1016.00 1016.20 1016.39 1016.54 1016.63 1016.66 1016.66 1016.64 1016.66 1016.72 1016.83 1017.00 1017.19 1017.38 1017.56 1017.71 1017.82 1017.90
1009.59 1010.12 1010.79 1011.55 1012.30 1012.96 1013.46 1013.75 1013.88 1013.89 1013.87 1013.91 1014.06 1014.34 1014.71 1015.11 1015.48 1015.75 1015.90 1015.93 1015.88 1015.82 1015.79 1015.84 1015.96 1016.16 1016.37 1016.57 1016.70 1016.76 1016.75 1016.70 1016.64 1016.61 1016.65 1016.75 1016.91 1017.12 1017.33 1017.53 1017.71 1017.85 1017.96
1009.43 1010.06 1010.83 1011.67 1012.48 1013.16 1013.65 1013.95 1014.06 1014.08 1014.07 1014.13 1014.30 1014.59 1014.96 1015.35 1015.68 1015.92 1016.03 1016.03 1015.98 1015.92 1015.91 1015.98 1016.14 1016.35 1016.58 1016.76 1016.86 1016.88 1016.82 1016.71 1016.60 1016.54 1016.54 1016.63 1016.78 1016.99 1017.22 1017.45 1017.66 1017.84 1017.99
1009.28 1009.97 1010.81 1011.70 1012.55 1013.26 1013.77 1014.08 1014.22 1014.27 1014.30 1014.39 1014.58 1014.88 1015.23 1015.58 1015.88 1016.07 1016.14 1016.13 1016.07 1016.03 1016.05 1016.16 1016.35 1016.59 1016.81 1016.97 1017.04 1017.00 1016.88 1016.72 1016.56 1016.45 1016.42 1016.49 1016.63 1016.84 1017.08 1017.32 1017.55 1017.77 1017.96
1009.15 1009.88 1010.74 1011.66 1012.53 1013.26 1013.80 1014.14 1014.33 1014.42 1014.50 1014.63 1014.85 1015.15 1015.48 1015.79 1016.04 1016.19 1016.23 1016.20 1016.16 1016.14 1016.21 1016.36 1016.58 1016.83 1017.04 1017.18 1017.20 1017.11 1016.93 1016.71 1016.50 1016.35 1016.30 1016.34 1016.47 1016.66 1016.89 1017.14 1017.38 1017.61 1017.83
1009.10 1009.82 1010.67 1011.58 1012.44 1013.18 1013.73 1014.11 1014.34 1014.49 1014.62 1014.80 1015.04 1015.33 1015.64 1015.92 1016.12 1016.24 1016.26 1016.23 1016.20 1016.23 1016.33 1016.52 1016.76 1017.01 1017.21 1017.31 1017.29 1017.14 1016.91 1016.65 1016.40 1016.23 1016.15 1016.18 1016.29 1016.46 1016.68 1016.90 1017.14 1017.37 1017.59
1009.15 1009.82 1010.63 1011.49 1012.32 1013.03 1013.58 1013.97 1014.23 1014.42 1014.61 1014.82 1015.08 1015.38 1015.67 1015.92 1016.09 1016.18 1016.19 1016.17 1016.17 1016.23 1016.36 1016.58 1016.83 1017.07 1017.25 1017.31 1017.24 1017.06 1016.79 1016.50 1016.24 1016.06 1015.97 1015.99 1016.08 1016.23 1016.42 1016.61 1016.81 1017.01 1017.22
1009.29 1009.90 1010.63 1011.42 1012.18 1012.83 1013.34 1013.72 1014.00 1014.21 1014.43 1014.66 1014.94 1015.24 1015.52 1015.76 1015.92 1015.99 1016.01 1016.01 1016.03 1016.11 1016.27 1016.49 1016.74 1016.96 1017.11 1017.13 1017.03 1016.82 1016.54 1016.25 1015.99 1015.82 1015.74 1015.75 1015.83 1015.96 1016.12 1016.27 1016.42 1016.58 1016.75
1009.50 1010.04 1010.69 1011.38 1012.04 1012.60 1013.05 1013.39 1013.65 1013.86 1014.09 1014.34 1014.63 1014.93 1015.22 1015.45 1015.61 1015.70 1015.73 1015.75 1015.79 1015.89 1016.06 1016.27 1016.50 1016.69 1016.79 1016.78 1016.66 1016.44 1016.16 1015.89 1015.65 1015.50 1015.44 1015.46 1015.55 1015.66 1015.78 1015.90 1016.00 1016.10 1016.22
1009.74 1010.22 1010.78 1011.36 1011.90 1012.36 1012.73 1013.00 1013.22 1013.42 1013.63 1013.89 1014.18 1014.49 1014.78 1015.03 1015.21 1015.32 1015.38 1015.42 1015.49 1015.59 1015.75 1015.94 1016.13 1016.28 1016.35 1016.31 1016.17 1015.95 1015.69 1015.44 1015.24 1015.13 1015.09 1015.14 1015.22 1015.33 1015.43 1015.51 1015.58 1015.63 1015.69
1009.94 1010.37 1010.85 1011.33 1011.77 1012.13 1012.40 1012.61 1012.77 1012.93 1013.13 1013.38 1013.67 1013.98 1014.29 1014.56 1014.77 1014.92 1015.01 1015.09 1015.17 1015.28 1015.42 1015.57 1015.72 1015.82 1015.85 1015.79 1015.64 1015.42 1015.19 1014.97 1014.81 1014.72 1014.71 1014.77 1014.87 1014.98 1015.07 1015.14 1015.18 1015.20 1015.22
1010.03 1010.43 1010.85 1011.26 1011.61 1011.89 1012.09 1012.24 1012.36 1012.49 1012.66 1012.89 1013.17 1013.49 1013.81 1014.10 1014.35 1014.54 1014.68 1014.79 1014.89 1015.00 1015.11 1015.24 1015.34 1015.40 1015.39 1015.30 1015.15 1014.94 1014.72 1014.53 1014.38 1014.32 1014.32 1014.39 1014.50 1014.61 1014.71 1014.78 1014.81 1014.82 1014.82
1009.97 1010.36 1010.75 1011.11 1011.42 1011.65 1011.81 1011.93 1012.02 1012.13 1012.28 1012.49 1012.76 1013.07 1013.40 1013.71 1013.99 1014.22 1014.40 1014.55 1014.67 1014.78 1014.88 1014.97 1015.04 1015.06 1015.03 1014.92 1014.76 1014.56 1014.35 1014.16 1014.02 1013.94 1013.94 1013.99 1014.09 1014.21 1014.32 1014.41 1014.46 1014.49 1014.48
1009.75 1010.14 1010.52 1010.87 1011.17 1011.41 1011.58 1011.70 1011.80 1011.90 1012.04 1012.22 1012.47 1012.76 1013.08 1013.39 1013.69 1013.96 1014.18 1014.36 1014.50 1014.62 1014.72 1014.80 1014.85 1014.85 1014.80 1014.69 1014.52 1014.32 1014.10 1013.89 1013.72 1013.61 1013.56 1013.58 1013.66 1013.76 1013.89 1014.00 1014.09 1014.15 1014.17
1009.40 1009.79 1010.18 1010.55 1010.88 1011.16 1011.38 1011.55 1011.68 1011.80 1011.93 1012.09 1012.29 1012.55 1012.83 1013.13 1013.43 1013.71 1013.96 1014.17 1014.34 1014.49 1014.60 1014.68 1014.73 1014.73 1014.68 1014.57 1014.41 1014.20 1013.97 1013.73 1013.50 1013.33 1013.21 1013.16 1013.18 1013.26 1013.38 1013.52 1013.65 1013.75 1013.81
1009.00 1009.38 1009.77 1010.17 1010.56 1010.91 1011.21 1011.45 1011.64 1011.79 1011.92 1012.05 1012.21 1012.39 1012.62 1012.88 1013.15 1013.43 1013.69 1013.93 1014.14 1014.31 1014.46 1014.56 1014.63 1014.65 1014.62 1014.54 1014.39 1014.18 1013.92 1013.64 1013.35 1013.08 1012.87 1012.73 1012.68 1012.71 1012.82 1012.96 1013.13 1013.27 1013.36
1008.65 1008.99 1009.37 1009.79 1010.23 1010.67 1011.06 1011.40 1011.66 1011.84 1011.97 1012.06 1012.15 1012.26 1012.41 1012.60 1012.83 1013.09 1013.35 1013.61 1013.85 1014.07 1014.25 1014.40 1014.50 1014.57 1014.58 1014.53 1014.40 1014.20 1013.93 1013.60 1013.24 1012.89 1012.57 1012.33 1012.19 1012.15 1012.21 1012.35 1012.52 1012.68 1012.80
1008.44 1008.71 1009.05 1009.48 1009.96 1010.46 1010.94 1011.36 1011.68 1011.90 1012.03 1012.08 1012.10 1012.12 1012.17 1012.28 1012.45 1012.67 1012.93 1013.21 1013.48 1013.73 1013.96 1014.16 1014.32 1014.44 1014.50 1014.49 1014.40 1014.22 1013.95 1013.59 1013.17 1012.74 1012.32 1011.98 1011.73 1011.61 1011.62 1011.72 1011.87 1012.04 1012.16
1008.44 1008.62 1008.90 1009.28 1009.77 1010.31 1010.85 1011.32 1011.70 1011.94 1012.06 1012.07 1012.02 1011.95 1011.91 1011.94 1012.05 1012.23 1012.47 1012.76 1013.05 1013.34 1013.62 1013.86 1014.07 1014.24 1014.36 1014.40 1014.36 1014.21 1013.95 1013.59 1013.14 1012.64 1012.15 1011.71 1011.38 1011.17 1011.10 1011.14 1011.26 1011.40 1011.50
1008.71 1008.76 1008.93 1009.25 1009.70 1010.23 1010.79 1011.30 1011.70 1011.95 1012.06 1012.03 1011.91 1011.77 1011.66 1011.61 1011.66 1011.81 1012.04 1012.32 1012.63 1012.95 1013.26 1013.54 1013.79 1014.00 1014.16 1014.25 1014.25 1014.15 1013.92 1013.57 1013.12 1012.59 1012.06 1011.56 1011.14 1010.86 1010.71 1010.68 1010.74 1010.83 1010.91
1009.20 1009.13 1009.17 1009.39 1009.76 1010.24 1010.78 1011.28 1011.68 1011.93 1012.02 1011.96 1011.81 1011.62 1011.45 1011.36 1011.36 1011.48 1011.70 1011.98 1012.30 1012.62 1012.94 1013.23 1013.50 1013.72 1013.91 1014.03 1014.08 1014.01 1013.83 1013.52 1013.10 1012.59 1012.04 1011.51 1011.05 1010.71 1010.49 1010.39 1010.38 1010.42 1010.45
1009.86 1009.66 1009.57 1009.66 1009.93 1010.33 1010.81 1011.27 1011.65 1011.90 1011.97 1011.90 1011.73 1011.52 1011.33 1011.21 1011.21 1011.31 1011.51 1011.78 1012.09 1012.41 1012.70 1012.98 1013.22 1013.44 1013.62 1013.75 1013.82 1013.80 1013.67 1013.42 1013.05 1012.58 1012.06 1011.54 1011.07 1010.69 1010.42 1010.27 1010.20 1010.18 1010.17
1010.57 1010.26 1010.06 1010.03 1010.18 1010.48 1010.88 1011.29 1011.64 1011.86 1011.93 1011.87 1011.70 1011.50 1011.32 1011.21 1011.20 1011.30 1011.49 1011.75 1012.03 1012.30 1012.56 1012.78 1012.98 1013.15 1013.30 1013.42 1013.49 1013.50 1013.42 1013.23 1012.93 1012.53 1012.07 1011.60 1011.15 1010.76 1010.47 1010.27 1010.16 1010.11 1010.06
1011.22 1010.84 1010.55 1010.42 1010.46 1010.67 1010.99 1011.34 1011.65 1011.85 1011.92 1011.88 1011.74 1011.56 1011.41 1011.32 1011.33 1011.43 1011.61 1011.84 1012.08 1012.30 1012.49 1012.64 1012.76 1012.85 1012.94 1013.02 1013.08 1013.11 1013.06 1012.94 1012.72 1012.41 1012.03 1011.62 1011.21 1010.85 1010.56 1010.35 1010.22 1010.14 1010.09
Thickness
5832 5826 5820 5817 5813 5811 5809 5807 5804 5801 5799 5796 5794 5792 5790 5788 5786 5783 5781 5779 5777 5775 5773 5771 5769 5768 5766 5765 5764 5763 5761 5760 5759 5757 5755 5753 5752 5752 5750 5749 5749 5747 5746
5836 5827 5821 5817 5814 5811 5809 5807 5804 5801 5799 5796 5793 5791 5789 5787 5785 5783 5781 5779 5777 5775 5773 5770 5769 5767 5765 5764 5763 5761 5760 5758 5757 5755 5754 5752 5751 5750 5749 5748 5748 5745 5744
5836 5827 5821 5818 5814 5812 5810 5807 5804 5801 5799 5796 5793 5791 5788 5786 5784 5782 5780 5778 5776 5774 5771 5769 5768 5766 5765 5763 5761 5760 5758 5757 5755 5754 5753 5753 5751 5749 5748 5747 5745 5743 5741
5836 5829 5823 5818 5814 5812 5810 5807 5804 5801 5798 5795 5792 5790 5788 5785 5783 5781 5779 5777 5775 5773 5771 5769 5767 5765 5763 5762 5760 5759 5757 5756 5755 5754 5753 5755 5752 5749 5747 5745 5743 5742 5740
5839 5831 5822 5818 5814 5812 5809 5807 5804 5801 5798 5795 5792 5789 5787 5785 5782 5780 5778 5776 5774 5772 5770 5768 5766 5764 5762 5761 5760 5758 5757 5756 5755 5755 5756 5757 5755 5750 5747 5745 5742 5741 5739
5840 5831 5823 5819 5815 5811 5809 5806 5803 5800 5797 5794 5791 5789 5786 5784 5782 5780 5777 5775 5774 5772 5770 5767 5766 5764 5762 5760 5759 5758 5757 5756 5755 5757 5758 5759 5756 5751 5748 5745 5742 5740 5739
5842 5831 5823 5818 5815 5811 5808 5805 5802 5799 5796 5793 5791 5788 5785 5783 5780 5778 5776 5774 5773 5771 5769 5767 5765 5764 5763 5761 5759 5757 5756 5755 5755 5758 5760 5761 5757 5753 5749 5746 5743 5741 5739
5842 5832 5822 5817 5814 5810 5807 5804 5801 5798 5796 5793 5790 5787 5784 5782 5779 5777 5775 5774 5772 5770 5769 5767 5765 5764 5762 5761 5759 5758 5757 5756 5758 5759 5762 5763 5759 5755 5751 5748 5745 5742 5740
5844 5832 5823 5817 5813 5810 5806 5804 5801 5798 5795 5792 5789 5786 5784 5781 5779 5777 5775 5774 5772 5770 5769 5767 5765 5764 5762 5761 5759 5758 5757 5756 5756 5759 5763 5763 5759 5757 5753 5750 5746 5743 5741
5842 5833 5827 5820 5815 5810 5806 5803 5801 5798 5795 5792 5789 5786 5783 5781 5779 5778 5776 5774 5773 5771 5770 5768 5766 5765 5763 5761 5759 5758 5757 5756 5758 5760 5762 5763 5760 5758 5755 5752 5748 5745 5743
5839 5834 5830 5823 5817 5813 5809 5805 5801 5798 5794 5792 5789 5786 5784 5782 5782 5780 5778 5776 5774 5772 5770 5769 5767 5765 5764 5762 5761 5759 5757 5758 5760 5763 5765 5765 5762 5760 5756 5753 5750 5748 5745
5832 5832 5831 5825 5820 5817 5814 5807 5803 5800 5796 5793 5791 5788 5785 5784 5785 5784 5782 5778 5775 5773 5771 5770 5768 5767 5765 5764 5764 5761 5760 5761 5762 5766 5768 5767 5764 5761 5757 5754 5751 5749 5747
5830 5829 5830 5825 5822 5819 5816 5808 5808 5805 5799 5795 5794 5790 5788 5787 5787 5786 5782 5778 5775 5773 5772 5772 5770 5768 5768 5767 5768 5765 5764 5765 5767 5768 5768 5766 5763 5759 5756 5753 5751 5750 5748
5827 5826 5827 5825 5820 5819 5817 5813 5810 5808 5802 5801 5797 5793 5791 5788 5788 5787 5783 5780 5777 5775 5773 5773 5771 5771 5770 5770 5770 5768 5767 5767 5767 5767 5766 5763 5761 5758 5756 5753 5752 5750 5749
5824 5824 5824 5822 5817 5814 5813 5811 5809 5807 5806 5801 5799 5793 5791 5790 5786 5786 5782 5780 5777 5776 5774 5772 5771 5770 5770 5770 5769 5769 5768 5767 5767 5767 5765 5762 5760 5759 5757 5754 5752 5751 5749
5822 5822 5822 5818 5815 5810 5807 5804 5805 5804 5802 5801 5798 5794 5790 5788 5786 5784 5781 5779 5777 5776 5774 5771 5771 5769 5768 5768 5768 5768 5767 5766 5766 5765 5764 5763 5761 5760 5758 5755 5753 5751 5750
5823 5822 5819 5815 5813 5807 5803 5800 5799 5799 5799 5797 5795 5793 5789 5786 5784 5782 5780 5778 5776 5774 5772 5770 5769 5767 5766 5766 5765 5766 5767 5766 5764 5764 5764 5763 5762 5761 5758 5756 5754 5752 5750
5823 5820 5817 5815 5810 5805 5801 5798 5796 5795 5795 5794 5792 5791 5788 5784 5782 5780 5777 5776 5773 5771 5769 5767 5765 5762 5760 5760 5761 5764 5766 5766 5764 5763 5762 5762 5762 5761 5759 5756 5754 5753 5751
5821 5817 5812 5811 5808 5803 5799 5795 5793 5791 5790 5788 5787 5787 5785 5783 5781 5778 5774 5772 5770 5767 5764 5762 5762 5758 5755 5755 5757 5761 5764 5764 5765 5764 5763 5762 5762 5760 5759 5758 5755 5753 5752
5817 5814 5809 5805 5803 5801 5796 5791 5788 5786 5785 5784 5782 5782 5781 5779 5777 5775 5772 5768 5766 5763 5760 5757 5754 5754 5752 5751 5753 5756 5759 5763 5765 5763 5762 5763 5762 5760 5759 5758 5755 5754 5752
5812 5807 5803 5799 5796 5794 5789 5785 5781 5778 5777 5777 5777 5776 5774 5773 5772 5771 5769 5767 5763 5759 5756 5754 5751 5748 5747 5748 5744 5744 5751 5760 5762 5762 5762 5761 5761 5760 5758 5757 5756 5754 5752
5802 5799 5795 5792 5790 5788 5785 5782 5779 5777 5774 5773 5772 5771 5770 5768 5766 5766 5764 5762 5759 5755 5752 5749 5747 5743 5742 5743 5737 5732 5733 5743 5752 5760 5759 5758 5757 5758 5758 5758 5756 5754 5752
5788 5788 5787 5785 5783 5781 5779 5776 5773 5770 5768 5766 5765 5765 5766 5764 5762 5761 5759 5757 5754 5751 5747 5744 5742 5739 5735 5737 5736 5729 5724 5725 5736 5749 5754 5756 5756 5754 5754 5755 5754 5753 5751
5774 5776 5775 5773 5772 5772 5771 5768 5764 5760 5758 5760 5760 5761 5761 5760 5759 5757 5755 5752 5749 5746 5743 5739 5739 5735 5732 5729 5730 5732 5730 5729 5724 5729 5741 5749 5752 5751 5750 5751 5751 5751 5748
5761 5762 5762 5761 5760 5761 5760 5759 5756 5754 5754 5754 5755 5755 5754 5754 5753 5752 5749 5746 5743 5739 5737 5734 5731 5729 5727 5725 5724 5725 5726 5727 5727 5722 5722 5733 5741 5747 5749 5748 5748 5747 5744
5748 5749 5749 5748 5747 5749 5749 5748 5746 5744 5743 5742 5742 5743 5743 5744 5744 5743 5741 5738 5735 5732 5730 5727 5725 5722 5720 5720 5720 5721 5720 5720 5721 5721 5719 5723 5728 5738 5745 5746 5744 5741 5738